Regional Weather Roundup
Issued by NWS

Home | Current Version | Previous Version | Text Only | Print | Product List | Glossary On
Versions: 1 2 3 4 5 6 7 8 9 10 11 12 13 14 15 16 17 18 19 20 21 22 23 24 25 26 27
000
ASUS45 KBOU 262007
RWRCO

WEATHER ROUNDUP FOR COLORADO
NATIONAL WEATHER SERVICE DENVER/BOULDER CO
200 PM MDT TUE JUL 26 2016

NOTE: "FAIR" INDICATES FEW OR NO CLOUDS BELOW 12000 FEET WITH NO
SIGNIFICANT WEATHER AND/OR OBSTRUCTIONS TO VISIBILITY.

COZ001>005-013-030-031-262100-
...NORTHWEST COLORADO...

CITY           SKY/WX    TMP DP  RH WIND       PRES   REMARKS
CRAIG          FAIR      94  24   8 N5        30.20F
HAYDEN         FAIR      84  30  14 W6        30.24F
MEEKER         FAIR      83  47  28 S10       30.23F
MOUNT WERNER   NOT AVBL
STEAMBOAT SPGS FAIR      85  37  18 S8        30.26F
WALDEN         PTSUNNY   77  27  15 N8        30.37F
$$

COZ006>008-011-262100-
...WEST CENTRAL VALLEYS...

CITY           SKY/WX    TMP DP  RH WIND       PRES   REMARKS
GRAND JUNCTION FAIR      93  43  17 VRB3      30.10F
MONTROSE       FAIR      84  43  23 S5        30.22F
EAGLE          NOT AVBL
RIFLE          FAIR      93  41  16 VRB5      30.16F
DELTA          NOT AVBL
NUCLA          FAIR     N/A N/A N/A S9        30.26F
$$

COZ017>023-064>068-262100-
...SOUTHWEST COLORADO...

CITY           SKY/WX    TMP DP  RH WIND       PRES   REMARKS
DURANGO        FAIR      85  46  25 W10       30.26F
CORTEZ         FAIR      87  48  25 W12       30.22F
PAGOSA SPRINGS FAIR      82  39  22 S3G20     30.34F
TELLURIDE      PTSUNNY   72  38  28 S9G16     30.51F
WOLF CREEK PAS TSTM      46  41  81 NE20      30.73S
$$

COZ009-010-012-014-032>034-037-058>063-262100-
...CENTRAL COLORADO...

CITY           SKY/WX    TMP DP  RH WIND       PRES   REMARKS
ASPEN          PTSUNNY   77  40  26 NE3       30.38F
BUENA VISTA    PTSUNNY   81  31  16 NW21G29   30.39F
COPPER MTN     CLOUDY    61  27  27 NW7       30.75F
BERTHOUD PASS  CLOUDY    52  37  58 MISG      30.77S
COTTONWOOD PAS CLOUDY    73  32  21 CALM      30.56F
GUNNISON       FAIR      73  43  33 CALM      30.41F
KREMMLING      FAIR      82  34  17 S5        30.34F
LEADVILLE      FAIR      68  30  24 NW10G17   30.56F
MONARCH PASS   PTSUNNY   59  32  36 E16       30.81F
SALIDA         FAIR      81  32  17 N8        30.43F
SUNLIGHT       FAIR      72  41  33 MISG      30.65F
WILKERSON PASS CLOUDY    52  39  62 NE10G16   30.70S
$$

COZ069>075-262100-
...SAN LUIS VALLEY/SANGRE DE CRISTO MOUNTAINS...

CITY           SKY/WX    TMP DP  RH WIND       PRES   REMARKS
ALAMOSA        FAIR      76  50  40 W12       30.34F
LA VETA PASS   NOT AVBL
SAGUACHE       FAIR      79  37  22 N16G25    30.37R
$$

COZ035-036-038>040-262100-
...NORTHERN COLORADO FRONT RANGE...

CITY           SKY/WX    TMP DP  RH WIND       PRES   REMARKS
DENVER INTL AP CLOUDY    90  41  18 NW5       30.15F
DMNS CITY PARK   N/A     89  38  16 SW7       30.15F
AURORA         PTSUNNY   89  37  15 NW17G23   30.17F
FRONT RANGE AP PTSUNNY   93  45  18 NW14G23   30.17S
ERIE MUNI ARPT FAIR      91  33  12 S13       30.12F
BOULDER MUN AP FAIR      90  39  17 S12       30.12F
CENTENNIAL     CLOUDY    88  32  13 W16       30.20F
BROOMFIELD     CLOUDY    90  37  15 S14       30.19F
LONGMONT       FAIR      89  55  31 NE12      30.13F
$$

COZ041-046-047-076>085-087-088-262100-
...PIKES PEAK/PALMER DIVIDE AND SOUTHERN FOOTHILLS...

CITY           SKY/WX    TMP DP  RH WIND       PRES   REMARKS
COLO. SPRINGS  PTSUNNY   84  43  23 SE6       30.23F
A. F. ACADEMY  PTSUNNY   84  39  20 NW15G24   30.26R
SCHRIEVER AFB  NOT AVBL
ELLICOTT       FAIR     N/A N/A N/A VRB5      30.20F
FALCON         PTSUNNY   80  38  22 NW12G20   30.30S
FORT CARSON    FAIR      84  50  30 E6        30.18F
LIMON          NOT AVBL
MONUMENT HILL  CLOUDY    77  41  27 W9        30.33R
TRINIDAD       NOT AVBL
$$

COZ042>045-048>051-090-091-262100-
...NORTHEAST COLORADO...

CITY           SKY/WX    TMP DP  RH WIND       PRES   REMARKS
GREELEY ARPT   FAIR      84  61  45 N15       30.11R
AKRON          FAIR      93  53  25 SE3       30.08F
BURLINGTON     FAIR      89  62  40 S17       30.09F
WRAY           NOT AVBL
STERLING       FAIR      95  59  30 S9        30.03F
HOLYOKE        FAIR      91  68  46 W13       30.04F
FORT MORGAN    FAIR      92  47  21 CALM      30.08F
$$

COZ086-089-092>099-262100-
...SOUTHEAST COLORADO...

CITY           SKY/WX    TMP DP  RH WIND       PRES   REMARKS
PUEBLO         FAIR      91  56  30 S7        30.08F
LA JUNTA       FAIR      93  54  26 E3        30.06F
LAMAR          FAIR      96  61  31 E13G22    30.02F
SPRINGFIELD      N/A     93  54  26 S7G21     30.09F
$$




USA.gov is the U.S. government's official web portal to all federal, state and local government web resources and services.